Location: Bay Shore Mobile Home Park
(38.5762°N, 75.0841°W)
Time: 19:52:32
(UTC+00:00)

IRS-P3 - Pass Details

Date: 15 November 2025
Orbit: 810 x 816 km, 99.0° (Epoch: 08 December)

Event Time Altitude Azimuth Distance (km) Brightness Sun altitude
Rises 22:36:43 0° 156° (SSE) 3,327 7.2 -10.0°
Reaches altitude 10° 22:39:03 10° 153° (SSE) 2,399 6.5 -10.4°
Maximum altitude 22:44:18 64° 73° (ENE) 902 4.1 -11.4°
Drops below altitude 10° 22:49:34 10° 353° (N) 2,412 6.5 -12.4°
Sets 22:51:56 0° 350° (N) 3,347 7.3 -12.9°
